Tracking 34138 objects as of 15-May-2026
HD Live streaming from Space Station
objects crossing your sky now

STARLINK-37110

Track STARLINK-37110 now!
10-day predictions
STARLINK-37110 is classified as:


NORAD ID: 68222
Int'l Code: 2026-053R
Perigee: 471.6 km
Apogee: 473.8 km
Inclination: 97.3 °
Period: 93.9 minutes
Semi major axis: 6843 km
RCS: Unknown
Launch date: March 17, 2026
Source: United States (US)
Launch site: AIR FORCE WESTERN TEST RANGE (AFWTR)
Your satellite tracking list
Your tracking list is empty




NASA's NSSDC Master Catalog

Two Line Element Set (TLE):
1 68222U 26053R   26135.26817937  .00002428  00000-0  77541-4 0  9990
2 68222  97.2860  10.8938 0001663  93.8025 266.3408 15.33436799 10422
Source of the keplerian elements: AFSPC